Weather History for Albany, NY

Change the Weather History Date:

Tuesday, February 18, 2014

  Actual Average Record
Temperature  
Mean Temperature 17 °F 27 °F  
Max Temperature 29 °F 35 °F 63 °F (1981)
Min Temperature 5 °F 18 °F -21 °F (1973)
Degree Days  
Heating Degree Days 48 38  
Month to date heating degree days 812 724  
Since 1 July heating degree days 4729 4575  
Cooling Degree Days 0 0  
Month to date cooling degree days 0 0  
Year to date cooling degree days 0 0  
Moisture  
Dew Point 14 °F    
Average Humidity 72    
Maximum Humidity 96    
Minimum Humidity 47    
Precipitation  
Precipitation 0.04 in 0.08 in 1.32 in (1931)
Month to date precipitation 2.52 1.38  
Year to date precipitation 4.83 3.97  
Snow  
Snow 0.70 in 0.40 in 6.30 in (2000)
Month to date snowfall 26.4 8.2  
Since 1 July snowfall 63.5 42.3  
Snow Depth 12.00 in    
Sea Level Pressure  
Sea Level Pressure 30.08 in    
Wind  
Wind Speed 4 mph (SSE)    
Max Wind Speed 15 mph    
Max Gust Speed 20 mph    
Visibility 6 miles    
Events Fog , Snow    
T = Trace of Precipitation, MM = Missing Value Source: NWS Daily Summary

Daily Weather History Graph

Daily Weather History Graph

Search for Another Location

Airport:

Trip Planner

Search our weather history database for the weather conditions in past years. The results will help you decide how hot, cold, wet, or windy it might be!

Date:

Astronomy

Feb. 18, 2014 Rise Set
Actual Time 6:48 AM EST 5:30 PM EST
Civil Twilight 6:19 AM EST 5:59 PM EST
Nautical Twilight 5:46 AM EST 6:32 PM EST
Astronomical Twilight 5:13 AM EST 7:05 PM EST
Moon 9:28 PM EST (2/18) 8:13 AM EST (2/18)
Length of Visible Light 11h 40m
Length of Day
10h 42m
Waning Gibbous, 87% of the Moon is Illuminated
Feb 18
Waning Gibbous
Feb 22
Last Quarter
Mar 1
New
Mar 8
First Quarter
Mar 16
Full

Hourly Weather History & Observations

Time (EST) Temp. Windchill Dew Point Humidity Pressure Visibility Wind Dir Wind Speed Gust Speed Precip Events Conditions
12:51 AM 7.0 °F - -0.9 °F 70% 30.30 in 10.0 mi Calm Calm - N/A   Overcast
1:51 AM 9.0 °F - -0.9 °F 64% 30.28 in 10.0 mi Calm Calm - N/A   Overcast
2:51 AM 9.0 °F - -0.9 °F 64% 30.22 in 10.0 mi Calm Calm - N/A   Overcast
3:51 AM 10.9 °F - 1.0 °F 64% 30.22 in 10.0 mi Calm Calm - N/A   Overcast
4:51 AM 18.0 °F 11.1 °F -0.0 °F 45% 30.20 in 10.0 mi South 4.6 mph - N/A   Overcast
5:51 AM 18.0 °F - 1.9 °F 50% 30.18 in 10.0 mi Calm Calm - N/A   Overcast
6:51 AM 18.0 °F 7.7 °F 1.9 °F 50% 30.17 in 8.0 mi South 8.1 mph - N/A   Overcast
7:51 AM 19.9 °F 11.1 °F 5.0 °F 52% 30.14 in 3.0 mi South 6.9 mph - 0.00 in Snow Light Snow
8:51 AM 19.9 °F 11.1 °F 12.9 °F 74% 30.14 in 6.0 mi South 6.9 mph - 0.00 in Snow Light Snow
9:51 AM 21.9 °F 11.0 °F 16.0 °F 78% 30.09 in 6.0 mi South 10.4 mph - 0.00 in Snow Light Snow
10:51 AM 24.1 °F 16.0 °F 17.1 °F 75% 30.05 in 9.0 mi South 6.9 mph - 0.00 in Snow Light Snow
11:37 AM 25.0 °F 15.5 °F 19.0 °F 78% 30.00 in 1.8 mi South 9.2 mph - 0.00 in Snow Light Snow
11:51 AM 25.0 °F 16.3 °F 19.9 °F 81% 30.01 in 1.5 mi South 8.1 mph - 0.00 in Snow Light Snow
12:35 PM 25.0 °F 16.3 °F 21.0 °F 85% 29.97 in 1.0 mi South 8.1 mph - 0.01 in Snow Light Snow
12:39 PM 25.0 °F 17.1 °F 21.9 °F 88% 29.97 in 0.8 mi South 6.9 mph - 0.01 in Snow Light Snow
12:51 PM 26.1 °F 18.4 °F 21.9 °F 84% 29.99 in 0.8 mi South 6.9 mph - 0.02 in Snow Light Snow
1:25 PM 26.1 °F 18.4 °F 21.9 °F 84% 29.96 in 0.8 mi South 6.9 mph - 0.01 in Snow Light Snow
1:51 PM 27.0 °F 21.6 °F 23.0 °F 85% 29.97 in 1.0 mi South 4.6 mph - 0.02 in Snow Light Snow
2:51 PM 28.0 °F 20.8 °F 23.0 °F 81% 29.97 in 6.0 mi South 6.9 mph - 0.00 in Snow Light Snow
3:51 PM 28.9 °F 22.8 °F 23.0 °F 78% 29.98 in 10.0 mi SSE 5.8 mph - 0.00 in   Mostly Cloudy
4:21 PM 28.9 °F 23.9 °F 23.0 °F 78% 29.97 in 4.0 mi ESE 4.6 mph - 0.00 in Snow Light Snow
4:51 PM 27.0 °F 19.5 °F 21.0 °F 78% 29.99 in 5.0 mi ENE 6.9 mph - 0.00 in Snow Light Snow
5:02 PM 26.1 °F 19.4 °F 21.0 °F 81% 29.98 in 2.0 mi NE 5.8 mph - 0.00 in Snow Light Snow
5:31 PM 24.1 °F 18.2 °F 19.9 °F 84% 29.99 in 7.0 mi ENE 4.6 mph - 0.00 in Snow Light Snow
5:51 PM 24.1 °F 18.2 °F 19.9 °F 84% 30.01 in 7.0 mi NNE 4.6 mph - 0.00 in   Scattered Clouds
6:51 PM 24.1 °F - 19.9 °F 84% 30.06 in 8.0 mi Calm Calm - 0.00 in   Mostly Cloudy
7:51 PM 23.0 °F 17.0 °F 19.0 °F 85% 30.06 in 8.0 mi ESE 4.6 mph - N/A   Mostly Cloudy
8:51 PM 19.9 °F - 17.1 °F 89% 30.08 in 8.0 mi Calm Calm - N/A   Partly Cloudy
9:51 PM 17.1 °F - 15.1 °F 92% 30.08 in 8.0 mi Calm Calm - N/A   Clear
10:51 PM 14.0 °F - 12.0 °F 92% 30.07 in 8.0 mi Calm Calm - N/A   Clear
11:51 PM 14.0 °F - 10.0 °F 84% 30.08 in 10.0 mi Calm Calm - N/A Fog Shallow Fog